| time (UTC) | temp F | wind direction | speed MPH | gust MPH | rain 1hr in | rain 24hr in | rain mn in | humidity % | barometer mb |
| 20260903111038 | 79 | 0 | 0.0 | 0.0 | 0.00 | 1.33 | 0.09 | 99 | 999.2 |
| 20260903110538 | 79 | 0 | 0.0 | 0.0 | 0.00 | 1.33 | 0.09 | 99 | 999.2 |
| 20260903110039 | 79 | 0 | 0.0 | 0.0 | 0.00 | 1.33 | 0.09 | 99 | 999.3 |
| 20260903105539 | 79 | 0 | 0.0 | 0.0 | 0.00 | 1.33 | 0.09 | 98 | 999.2 |
| 20260903105040 | 79 | 0 | 0.0 | 0.0 | 0.00 | 1.33 | 0.09 | 98 | 999.1 |
| 20260903104535 | 79 | 0 | 0.0 | 1.0 | 0.00 | 1.33 | 0.09 | 98 | 999.0 |
| 20260903104034 | 79 | 0 | 0.0 | 2.0 | 0.00 | 1.33 | 0.09 | 98 | 998.9 |
| 20260903103759 | 79 | 0 | 0.0 | 2.0 | 0.00 | 1.33 | 0.09 | 98 | 998.9 |
| 20260903103035 | 79 | 0 | 0.0 | 0.0 | 0.00 | 1.33 | 0.09 | 98 | 998.9 |
| 20260903102535 | 79 | 0 | 0.0 | 0.0 | 0.00 | 1.33 | 0.09 | 98 | 998.9 |
| 20260903102036 | 79 | 0 | 0.0 | 0.0 | 0.00 | 1.33 | 0.09 | 98 | 998.9 |
| 20260903101534 | 79 | 0 | 0.0 | 0.0 | 0.00 | 1.33 | 0.09 | 98 | 998.9 |
| 20260903101034 | 79 | 0 | 0.0 | 0.0 | 0.00 | 1.33 | 0.09 | 98 | 998.9 |
| 20260903100535 | 79 | 0 | 0.0 | 0.0 | 0.00 | 1.33 | 0.09 | 98 | 998.9 |
| 20260903100523 | 79 | 0 | 0.0 | 0.0 | 0.00 | 1.33 | 0.09 | 98 | 999.0 |
| 20260903095531 | 79 | 0 | 0.0 | 0.0 | 0.00 | 1.33 | 0.09 | 98 | 999.0 |
| 20260903095031 | 79 | 0 | 0.0 | 0.0 | 0.00 | 1.33 | 0.09 | 98 | 999.0 |
| 20260903094531 | 79 | 0 | 0.0 | 0.0 | 0.00 | 1.33 | 0.09 | 98 | 998.9 |
| 20260903094031 | 79 | 0 | 0.0 | 0.0 | 0.00 | 1.33 | 0.09 | 98 | 998.9 |
| 20260903093531 | 79 | 0 | 0.0 | 0.0 | 0.00 | 1.33 | 0.09 | 98 | 998.9 |
| 20260903093030 | 79 | 0 | 0.0 | 0.0 | 0.00 | 1.33 | 0.09 | 98 | 998.9 |
| 20260903092757 | 79 | 0 | 0.0 | 0.0 | 0.00 | 1.33 | 0.09 | 98 | 998.8 |
| 20260903092033 | 79 | 0 | 0.0 | 0.0 | 0.00 | 1.33 | 0.09 | 98 | 998.8 |
| 20260903091526 | 79 | 0 | 0.0 | 0.0 | 0.00 | 1.33 | 0.09 | 98 | 998.9 |
| 20260903091027 | 79 | 0 | 0.0 | 0.0 | 0.00 | 1.33 | 0.09 | 98 | 998.9 |
| 20260903090526 | 79 | 0 | 0.0 | 0.0 | 0.00 | 1.33 | 0.09 | 98 | 998.8 |
| 20260903090026 | 79 | 0 | 0.0 | 0.0 | 0.00 | 1.33 | 0.09 | 98 | 998.8 |
| 20260903085527 | 80 | 0 | 0.0 | 0.0 | 0.00 | 1.33 | 0.09 | 98 | 998.8 |
| 20260903085027 | 80 | 0 | 0.0 | 0.0 | 0.00 | 1.33 | 0.09 | 98 | 998.7 |
| 20260903084526 | 80 | 0 | 0.0 | 0.0 | 0.00 | 1.33 | 0.09 | 98 | 998.8 |
| 20260903084024 | 80 | 0 | 0.0 | 0.0 | 0.00 | 1.33 | 0.09 | 98 | 998.8 |
| 20260903083522 | 80 | 0 | 0.0 | 0.0 | 0.00 | 1.33 | 0.09 | 98 | 998.8 |
| 20260903083018 | 80 | 0 | 0.0 | 0.0 | 0.00 | 1.33 | 0.09 | 98 | 998.8 |
| 20260903082521 | 80 | 0 | 0.0 | 0.0 | 0.00 | 1.33 | 0.09 | 98 | 998.8 |
| 20260903082014 | 80 | 0 | 0.0 | 0.0 | 0.00 | 1.33 | 0.09 | 98 | 998.7 |
| 20260903081513 | 80 | 0 | 0.0 | 0.0 | 0.00 | 1.33 | 0.09 | 98 | 998.7 |
| 20260903081013 | 80 | 0 | 0.0 | 0.0 | 0.00 | 1.33 | 0.09 | 98 | 998.7 |
| 20260903080511 | 80 | 0 | 0.0 | 0.0 | 0.00 | 1.33 | 0.09 | 98 | 998.7 |
| 20260903080010 | 80 | 0 | 0.0 | 0.0 | 0.00 | 1.33 | 0.09 | 98 | 998.6 |
| 20260903075510 | 80 | 0 | 0.0 | 0.0 | 0.00 | 1.33 | 0.09 | 98 | 998.7 |
| 20260903075224 | 80 | 0 | 0.0 | 0.0 | 0.00 | 1.33 | 0.09 | 98 | 998.6 |
| 20260903074505 | 80 | 0 | 0.0 | 0.0 | 0.00 | 1.33 | 0.09 | 98 | 998.5 |
| 20260903074005 | 80 | 0 | 0.0 | 0.0 | 0.00 | 1.33 | 0.09 | 98 | 998.5 |
| 20260903073503 | 80 | 0 | 0.0 | 0.0 | 0.00 | 1.33 | 0.09 | 98 | 998.6 |
| 20260903073001 | 80 | 0 | 0.0 | 0.0 | 0.00 | 1.33 | 0.09 | 98 | 998.5 |
| 20260903072500 | 80 | 0 | 0.0 | 2.0 | 0.00 | 1.33 | 0.09 | 98 | 998.5 |
| 20260903072000 | 79 | 0 | 0.0 | 3.0 | 0.00 | 1.33 | 0.09 | 98 | 998.4 |
| 20260903071459 | 79 | 0 | 0.0 | 3.0 | 0.00 | 1.33 | 0.09 | 98 | 998.5 |
| 20260903070956 | 79 | 0 | 0.0 | 0.0 | 0.00 | 1.33 | 0.09 | 98 | 998.6 |
| 20260903070456 | 79 | 0 | 0.0 | 0.0 | 0.00 | 1.33 | 0.09 | 98 | 998.6 |
| 20260903065953 | 79 | 0 | 0.0 | 0.0 | 0.00 | 1.33 | 0.09 | 98 | 998.7 |
| 20260903065450 | 79 | 0 | 0.0 | 0.0 | 0.00 | 1.33 | 0.09 | 97 | 998.8 |
| 20260903064949 | 79 | 0 | 0.0 | 0.0 | 0.00 | 1.33 | 0.09 | 98 | 998.8 |
| 20260903064444 | 79 | 0 | 0.0 | 0.0 | 0.00 | 1.33 | 0.09 | 98 | 998.9 |
| 20260903063945 | 79 | 0 | 0.0 | 0.0 | 0.01 | 1.33 | 0.09 | 98 | 998.8 |
| 20260903063440 | 79 | 0 | 0.0 | 0.0 | 0.01 | 1.33 | 0.09 | 97 | 998.9 |
| 20260903062942 | 79 | 0 | 0.0 | 0.0 | 0.03 | 1.33 | 0.09 | 97 | 998.9 |
| 20260903062438 | 79 | 0 | 0.0 | 2.0 | 0.04 | 1.33 | 0.09 | 97 | 998.9 |
| 20260903061939 | 79 | 0 | 0.0 | 2.0 | 0.05 | 1.33 | 0.09 | 97 | 999.0 |
| 20260903061436 | 79 | 0 | 0.0 | 2.0 | 0.07 | 1.33 | 0.09 | 97 | 999.0 |
| 20260903060936 | 79 | 0 | 0.0 | 2.0 | 0.08 | 1.33 | 0.09 | 97 | 999.0 |
| 20260903060434 | 78 | 0 | 0.0 | 2.0 | 0.09 | 1.33 | 0.09 | 97 | 999.0 |
| 20260903060155 | 78 | 0 | 0.0 | 0.0 | 0.09 | 1.33 | 0.09 | 97 | 999.0 |
| 20260903055435 | 78 | 0 | 0.0 | 1.0 | 0.09 | 1.33 | 0.09 | 97 | 999.1 |
| 20260903054932 | 78 | 0 | 0.0 | 2.0 | 0.11 | 1.33 | 0.09 | 97 | 999.2 |
| 20260903054428 | 79 | 0 | 0.0 | 2.0 | 0.12 | 1.33 | 0.09 | 97 | 999.3 |
| 20260903054147 | 79 | 0 | 0.0 | 2.0 | 0.12 | 1.32 | 0.08 | 97 | 999.3 |
| 20260903053426 | 79 | 0 | 1.0 | 2.0 | 0.12 | 1.31 | 0.07 | 97 | 999.3 |
| 20260903052926 | 79 | 0 | 1.0 | 3.0 | 0.13 | 1.30 | 0.07 | 97 | 999.4 |
| 20260903052426 | 79 | 0 | 0.0 | 3.0 | 0.12 | 1.29 | 0.05 | 97 | 999.6 |
| 20260903052148 | 79 | 0 | 0.0 | 2.0 | 0.14 | 1.28 | 0.04 | 97 | 999.7 |
| 20260903051652 | 79 | 0 | 1.0 | 3.0 | 0.13 | 1.26 | 0.02 | 97 | 999.8 |
| 20260903050924 | 79 | 0 | 1.0 | 3.0 | 0.13 | 1.25 | 0.01 | 97 | 1000.0 |
| 20260903050425 | 79 | 0 | 0.0 | 2.0 | 0.12 | 1.24 | 0.00 | 97 | 1000.0 |
| 20260903045920 | 78 | 0 | 0.0 | 2.0 | 0.13 | 1.24 | 1.24 | 97 | 1000.0 |
| 20260903045419 | 78 | 0 | 1.0 | 4.0 | 0.12 | 1.23 | 1.24 | 97 | 1000.1 |
| 20260903044920 | 78 | 0 | 1.0 | 4.0 | 0.12 | 1.22 | 1.22 | 97 | 1000.0 |
| 20260903044419 | 78 | 0 | 0.0 | 3.0 | 0.11 | 1.21 | 1.21 | 97 | 1000.1 |
| 20260903043920 | 78 | 0 | 0.0 | 1.0 | 0.10 | 1.20 | 1.20 | 96 | 1000.1 |
| 20260903043421 | 78 | 0 | 0.0 | 1.0 | 0.09 | 1.19 | 1.19 | 96 | 1000.2 |
| 20260903043139 | 78 | 0 | 0.0 | 1.0 | 0.07 | 1.17 | 1.18 | 96 | 1000.4 |
| 20260903042420 | 78 | 0 | 0.0 | 1.0 | 0.07 | 1.17 | 1.17 | 96 | 1000.5 |
| 20260903041921 | 78 | 0 | 0.0 | 1.0 | 0.04 | 1.14 | 1.14 | 96 | 1000.7 |
| 20260903041417 | 78 | 0 | 0.0 | 1.0 | 0.03 | 1.13 | 1.13 | 96 | 1000.8 |
| 20260903040916 | 78 | 0 | 0.0 | 1.0 | 0.02 | 1.12 | 1.12 | 96 | 1000.8 |
| 20260903040416 | 78 | 0 | 0.0 | 1.0 | 0.02 | 1.12 | 1.12 | 96 | 1000.7 |
| 20260903035915 | 78 | 0 | 0.0 | 1.0 | 0.01 | 1.11 | 1.11 | 96 | 1000.8 |
| 20260903035416 | 78 | 0 | 0.0 | 1.0 | 0.00 | 1.10 | 1.10 | 96 | 1000.5 |
| 20260903034915 | 78 | 0 | 0.0 | 1.0 | 0.00 | 1.10 | 1.10 | 96 | 1000.5 |
| 20260903034414 | 78 | 0 | 0.0 | 1.0 | 0.00 | 1.10 | 1.10 | 96 | 1000.4 |
| 20260903033915 | 78 | 0 | 0.0 | 1.0 | 0.00 | 1.10 | 1.10 | 95 | 1000.1 |
| 20260903033416 | 78 | 0 | 0.0 | 0.0 | 0.00 | 1.10 | 1.10 | 95 | 999.9 |
| 20260903032911 | 78 | 0 | 0.0 | 1.0 | 0.00 | 1.10 | 1.10 | 95 | 999.8 |
| 20260903032411 | 78 | 0 | 0.0 | 1.0 | 0.00 | 1.10 | 1.10 | 95 | 999.9 |
| 20260903031912 | 78 | 0 | 0.0 | 1.0 | 0.00 | 1.10 | 1.10 | 95 | 999.7 |
| 20260903031410 | 78 | 0 | 0.0 | 0.0 | 0.00 | 1.10 | 1.10 | 95 | 999.5 |
| 20260903030911 | 78 | 0 | 0.0 | 0.0 | 0.00 | 1.10 | 1.10 | 95 | 999.7 |
| 20260903030411 | 78 | 0 | 0.0 | 0.0 | 0.00 | 1.10 | 1.10 | 95 | 999.6 |
| 20260903025911 | 78 | 0 | 0.0 | 0.0 | 0.00 | 1.10 | 1.10 | 95 | 999.6 |
| 20260903025411 | 78 | 0 | 0.0 | 0.0 | 0.00 | 1.10 | 1.10 | 95 | 999.5 |
| 20260903024912 | 78 | 0 | 0.0 | 0.0 | 0.00 | 1.10 | 1.10 | 95 | 999.5 |
| 20260903024630 | 78 | 0 | 0.0 | 0.0 | 0.00 | 1.10 | 1.10 | 95 | 999.5 |
| 20260903023911 | 78 | 0 | 0.0 | 0.0 | 0.00 | 1.10 | 1.10 | 95 | 999.4 |
| 20260903023411 | 78 | 0 | 0.0 | 0.0 | 0.00 | 1.10 | 1.10 | 95 | 999.1 |
| 20260903022911 | 78 | 0 | 0.0 | 0.0 | 0.00 | 1.10 | 1.10 | 95 | 999.1 |
| 20260903022410 | 78 | 0 | 0.0 | 0.0 | 0.00 | 1.10 | 1.10 | 95 | 999.1 |
| 20260903021910 | 78 | 0 | 0.0 | 0.0 | 0.00 | 1.10 | 1.10 | 95 | 999.0 |
| 20260903021411 | 78 | 0 | 0.0 | 0.0 | 0.01 | 1.10 | 1.10 | 95 | 998.9 |
| 20260903020910 | 78 | 0 | 0.0 | 2.0 | 0.01 | 1.10 | 1.10 | 95 | 998.8 |
| 20260903020411 | 78 | 0 | 0.0 | 4.0 | 0.02 | 1.10 | 1.10 | 94 | 998.5 |
| 20260903015910 | 78 | 0 | 0.0 | 4.0 | 0.02 | 1.10 | 1.10 | 94 | 998.5 |
| 20260903015411 | 78 | 0 | 0.0 | 0.0 | 0.06 | 1.10 | 1.10 | 94 | 998.4 |
| 20260903014912 | 78 | 0 | 0.0 | 0.0 | 0.13 | 1.10 | 1.10 | 94 | 998.5 |
| 20260903014411 | 78 | 0 | 0.0 | 0.0 | 0.30 | 1.10 | 1.10 | 94 | 998.7 |
| 20260903013910 | 78 | 0 | 0.0 | 2.0 | 0.59 | 1.10 | 1.10 | 94 | 998.5 |
| 20260903013408 | 78 | 0 | 0.0 | 3.0 | 0.86 | 1.10 | 1.10 | 94 | 998.4 |
| 20260903012909 | 78 | 0 | 1.0 | 8.0 | 0.88 | 1.10 | 1.10 | 94 | 998.3 |
| 20260903012406 | 78 | 0 | 2.0 | 8.0 | 0.88 | 1.10 | 1.10 | 94 | 998.0 |
| 20260903011906 | 78 | 0 | 1.0 | 4.0 | 0.88 | 1.10 | 1.10 | 93 | 998.0 |
| 20260903011359 | 78 | 0 | 2.0 | 5.0 | 0.87 | 1.09 | 1.09 | 93 | 998.1 |
| 20260903011119 | 78 | 0 | 3.0 | 12.0 | 0.87 | 1.09 | 1.09 | 93 | 998.4 |
| 20260903010358 | 78 | 0 | 3.0 | 12.0 | 0.86 | 1.08 | 1.09 | 93 | 998.6 |
| 20260903005858 | 78 | 0 | 2.0 | 9.0 | 0.86 | 1.08 | 1.08 | 93 | 998.4 |
| 20260903005359 | 78 | 0 | 2.0 | 6.0 | 0.82 | 1.04 | 1.05 | 92 | 998.6 |
| 20260903004856 | 79 | 140 | 2.0 | 6.0 | 0.75 | 0.97 | 0.97 | 92 | 998.8 |
| 20260903004357 | 80 | 179 | 1.0 | 4.0 | 0.55 | 0.76 | 0.78 | 92 | 998.5 |
| 20260903003854 | 80 | 130 | 1.0 | 3.0 | 0.30 | 0.51 | 0.51 | 92 | 998.6 |
| 20260903003355 | 80 | 349 | 1.0 | 3.0 | 0.03 | 0.24 | 0.24 | 92 | 998.8 |
| 20260903002850 | 80 | 16 | 1.0 | 3.0 | 0.01 | 0.22 | 0.22 | 93 | 998.5 |
| 20260903002352 | 80 | 310 | 1.0 | 3.0 | 0.01 | 0.22 | 0.22 | 93 | 998.5 |
| 20260903001848 | 80 | 296 | 1.0 | 5.0 | 0.01 | 0.22 | 0.22 | 92 | 998.1 |
| 20260903001348 | 80 | 346 | 2.0 | 5.0 | 0.01 | 0.22 | 0.22 | 92 | 997.6 |
| 20260903001109 | 80 | 325 | 2.0 | 5.0 | 0.01 | 0.22 | 0.22 | 92 | 997.4 |
| 20260903000348 | 81 | 299 | 1.0 | 5.0 | 0.02 | 0.22 | 0.22 | 91 | 997.4 |
| 20260902235849 | 81 | 349 | 1.0 | 4.0 | 0.05 | 0.22 | 0.22 | 91 | 997.5 |
| 20260902235347 | 81 | 350 | 1.0 | 4.0 | 0.16 | 0.22 | 0.22 | 91 | 997.2 |
| 20260902234846 | 81 | 19 | 0.0 | 3.0 | 0.21 | 0.22 | 0.22 | 90 | 997.3 |
| 20260902234346 | 81 | 95 | 0.0 | 2.0 | 0.21 | 0.21 | 0.21 | 89 | 997.4 |
| 20260902233845 | 81 | 99 | 1.0 | 3.0 | 0.21 | 0.21 | 0.21 | 89 | 997.2 |
| 20260902233610 | 81 | 225 | 1.0 | 3.0 | 0.21 | 0.21 | 0.21 | 89 | 997.0 |
| 20260902232840 | 82 | 238 | 1.0 | 4.0 | 0.21 | 0.21 | 0.21 | 89 | 996.9 |
| 20260902232341 | 82 | 140 | 0.0 | 4.0 | 0.21 | 0.21 | 0.21 | 88 | 996.9 |
| 20260902231836 | 82 | 304 | 0.0 | 2.0 | 0.21 | 0.21 | 0.21 | 88 | 996.8 |
| 20260902231335 | 82 | 0 | 0.0 | 1.0 | 0.21 | 0.22 | 0.21 | 86 | 996.8 |
| 20260902230834 | 82 | 0 | 1.0 | 2.0 | 0.21 | 0.23 | 0.21 | 85 | 996.7 |
| 20260902230334 | 83 | 0 | 2.0 | 4.0 | 0.20 | 0.22 | 0.20 | 84 | 996.8 |
| 20260902225833 | 83 | 0 | 2.0 | 4.0 | 0.16 | 0.19 | 0.17 | 82 | 997.1 |
| 20260902225334 | 85 | 0 | 2.0 | 4.0 | 0.06 | 0.10 | 0.06 | 80 | 997.1 |
| 20260902224832 | 86 | 0 | 2.0 | 4.0 | 0.01 | 0.06 | 0.01 | 79 | 997.1 |
| 20260902224332 | 86 | 0 | 1.0 | 4.0 | 0.00 | 0.06 | 0.00 | 76 | 997.0 |
| 20260902224050 | 87 | 0 | 2.0 | 4.0 | 0.00 | 0.06 | 0.00 | 75 | 997.0 |
| 20260902223332 | 89 | 0 | 2.0 | 6.0 | 0.00 | 0.07 | 0.00 | 73 | 996.9 |
| 20260902223053 | 90 | 0 | 2.0 | 6.0 | 0.00 | 0.08 | 0.00 | 70 | 997.0 |
| 20260902222332 | 91 | 0 | 2.0 | 7.0 | 0.00 | 0.10 | 0.00 | 70 | 997.0 |
| 20260902221829 | 92 | 0 | 1.0 | 7.0 | 0.00 | 0.15 | 0.00 | 69 | 997.0 |
| 20260902221328 | 93 | 0 | 0.0 | 3.0 | 0.00 | 0.15 | 0.00 | 66 | 996.9 |
| 20260902220828 | 93 | 0 | 1.0 | 5.0 | 0.00 | 0.15 | 0.00 | 66 | 996.7 |
| 20260902220328 | 93 | 0 | 2.0 | 6.0 | 0.00 | 0.15 | 0.00 | 65 | 996.6 |
| 20260902215828 | 92 | 0 | 1.0 | 6.0 | 0.00 | 0.15 | 0.00 | 66 | 996.7 |
| 20260902215326 | 92 | 177 | 0.0 | 1.0 | 0.00 | 0.15 | 0.00 | 69 | 996.6 |
| 20260902214822 | 92 | 0 | 0.0 | 3.0 | 0.00 | 0.15 | 0.00 | 68 | 996.7 |
| 20260902214321 | 92 | 0 | 1.0 | 5.0 | 0.00 | 0.15 | 0.00 | 68 | 996.7 |
| 20260902214043 | 91 | 0 | 1.0 | 5.0 | 0.00 | 0.15 | 0.00 | 68 | 996.8 |
| 20260902213541 | 91 | 0 | 2.0 | 4.0 | 0.00 | 0.15 | 0.00 | 69 | 996.7 |
| 20260902212816 | 91 | 165 | 2.0 | 4.0 | 0.00 | 0.15 | 0.00 | 70 | 996.9 |
| 20260902212800 | 91 | 207 | 1.0 | 4.0 | 0.00 | 0.15 | 0.00 | 71 | 996.9 |
| 20260902211816 | 91 | 0 | 1.0 | 4.0 | 0.00 | 0.15 | 0.00 | 71 | 996.9 |
| 20260902211316 | 91 | 0 | 0.0 | 2.0 | 0.00 | 0.15 | 0.00 | 70 | 997.0 |
| 20260902210816 | 91 | 0 | 1.0 | 3.0 | 0.00 | 0.15 | 0.00 | 70 | 997.0 |
| 20260902210316 | 92 | 0 | 1.0 | 3.0 | 0.00 | 0.15 | 0.00 | 69 | 997.2 |
| 20260902205817 | 93 | 0 | 1.0 | 3.0 | 0.00 | 0.15 | 0.00 | 67 | 997.3 |
| 20260902205316 | 94 | 294 | 1.0 | 3.0 | 0.00 | 0.15 | 0.00 | 66 | 997.3 |
| 20260902204816 | 94 | 24 | 2.0 | 4.0 | 0.00 | 0.15 | 0.00 | 65 | 997.4 |
| 20260902204317 | 95 | 0 | 2.0 | 11.0 | 0.00 | 0.15 | 0.00 | 64 | 997.2 |
| 20260902203817 | 95 | 0 | 2.0 | 11.0 | 0.00 | 0.15 | 0.00 | 62 | 997.1 |
| 20260902203544 | 95 | 0 | 2.0 | 8.0 | 0.00 | 0.15 | 0.00 | 63 | 997.1 |
| 20260902202816 | 95 | 0 | 2.0 | 8.0 | 0.00 | 0.15 | 0.00 | 62 | 997.2 |
| 20260902202311 | 95 | 0 | 2.0 | 10.0 | 0.00 | 0.15 | 0.00 | 63 | 997.3 |
| 20260902201812 | 95 | 230 | 3.0 | 12.0 | 0.00 | 0.15 | 0.00 | 63 | 997.3 |
| 20260902201312 | 94 | 167 | 5.0 | 12.0 | 0.00 | 0.15 | 0.00 | 64 | 997.3 |
| 20260902200812 | 94 | 0 | 3.0 | 11.0 | 0.00 | 0.15 | 0.00 | 64 | 997.3 |
| 20260902200312 | 94 | 175 | 2.0 | 10.0 | 0.00 | 0.15 | 0.00 | 64 | 997.3 |
| 20260902195812 | 94 | 0 | 2.0 | 10.0 | 0.00 | 0.15 | 0.00 | 64 | 997.4 |
| 20260902195313 | 95 | 125 | 1.0 | 5.0 | 0.00 | 0.15 | 0.00 | 64 | 997.5 |
| 20260902194812 | 95 | 190 | 1.0 | 8.0 | 0.00 | 0.15 | 0.00 | 64 | 997.6 |
| 20260902194312 | 95 | 118 | 3.0 | 12.0 | 0.00 | 0.15 | 0.00 | 64 | 997.7 |
| 20260902193809 | 95 | 112 | 2.0 | 12.0 | 0.00 | 0.15 | 0.00 | 64 | 997.7 |
| 20260902193308 | 95 | 0 | 1.0 | 5.0 | 0.00 | 0.15 | 0.00 | 65 | 997.8 |
| 20260902192809 | 95 | 0 | 2.0 | 12.0 | 0.00 | 0.15 | 0.00 | 65 | 997.9 |
| 20260902192308 | 94 | 0 | 2.0 | 12.0 | 0.00 | 0.15 | 0.00 | 66 | 998.0 |
| 20260902191807 | 94 | 226 | 2.0 | 8.0 | 0.00 | 0.15 | 0.00 | 66 | 998.1 |
| 20260902191308 | 94 | 0 | 2.0 | 6.0 | 0.00 | 0.15 | 0.00 | 65 | 998.1 |
| 20260902190808 | 94 | 0 | 2.0 | 5.0 | 0.00 | 0.15 | 0.00 | 66 | 998.2 |
| 20260902190524 | 94 | 259 | 2.0 | 7.0 | 0.00 | 0.15 | 0.00 | 66 | 998.3 |
| 20260902185808 | 94 | 0 | 2.0 | 7.0 | 0.00 | 0.15 | 0.00 | 66 | 998.3 |
| 20260902185523 | 94 | 0 | 2.0 | 6.0 | 0.00 | 0.15 | 0.00 | 66 | 998.4 |
| 20260902185026 | 94 | 183 | 2.0 | 6.0 | 0.00 | 0.15 | 0.00 | 67 | 998.5 |
| 20260902184304 | 94 | 0 | 2.0 | 9.0 | 0.00 | 0.15 | 0.00 | 68 | 998.5 |
| 20260902183804 | 94 | 227 | 2.0 | 9.0 | 0.00 | 0.15 | 0.00 | 67 | 998.6 |
| 20260902183304 | 94 | 0 | 3.0 | 9.0 | 0.00 | 0.15 | 0.00 | 69 | 998.8 |
| 20260902182804 | 94 | 196 | 3.0 | 9.0 | 0.00 | 0.15 | 0.00 | 68 | 998.8 |
| 20260902182306 | 94 | 0 | 2.0 | 8.0 | 0.00 | 0.15 | 0.00 | 69 | 998.9 |
| 20260902182025 | 94 | 0 | 2.0 | 9.0 | 0.00 | 0.15 | 0.00 | 70 | 999.0 |
| 20260902181304 | 94 | 183 | 1.0 | 9.0 | 0.00 | 0.15 | 0.00 | 70 | 999.2 |
| 20260902180801 | 93 | 0 | 1.0 | 8.0 | 0.00 | 0.15 | 0.00 | 70 | 999.2 |
| 20260902180301 | 93 | 179 | 2.0 | 7.0 | 0.00 | 0.15 | 0.00 | 71 | 999.4 |
| 20260902175801 | 93 | 305 | 2.0 | 11.0 | 0.00 | 0.15 | 0.00 | 72 | 999.5 |
| 20260902175259 | 93 | 0 | 2.0 | 11.0 | 0.00 | 0.15 | 0.00 | 72 | 999.6 |
| 20260902174800 | 92 | 67 | 3.0 | 10.0 | 0.00 | 0.15 | 0.00 | 72 | 999.8 |
| 20260902174301 | 92 | 121 | 2.0 | 10.0 | 0.00 | 0.15 | 0.00 | 73 | 999.8 |
| 20260902173801 | 92 | 0 | 1.0 | 8.0 | 0.00 | 0.15 | 0.00 | 76 | 999.9 |
| 20260902173301 | 91 | 301 | 1.0 | 3.0 | 0.00 | 0.15 | 0.00 | 77 | 1000.0 |
| 20260902172801 | 91 | 0 | 1.0 | 4.0 | 0.00 | 0.15 | 0.00 | 77 | 1000.0 |
| 20260902172256 | 90 | 0 | 2.0 | 14.0 | 0.00 | 0.15 | 0.00 | 78 | 1000.1 |
| 20260902172245 | 90 | 0 | 2.0 | 14.0 | 0.00 | 0.15 | 0.00 | 77 | 1000.2 |
| 20260902171256 | 90 | 0 | 2.0 | 8.0 | 0.00 | 0.15 | 0.00 | 79 | 1000.4 |
| 20260902170756 | 89 | 0 | 2.0 | 8.0 | 0.00 | 0.15 | 0.00 | 80 | 1000.5 |
| 20260902170255 | 89 | 0 | 1.0 | 6.0 | 0.00 | 0.15 | 0.00 | 81 | 1000.6 |
| 20260902170015 | 88 | 216 | 1.0 | 5.0 | 0.00 | 0.15 | 0.00 | 81 | 1000.8 |
| 20260902165256 | 88 | 163 | 1.0 | 6.0 | 0.00 | 0.15 | 0.00 | 82 | 1000.8 |
| 20260902165015 | 88 | 0 | 1.0 | 8.0 | 0.00 | 0.15 | 0.00 | 82 | 1000.8 |
| 20260902164256 | 88 | 0 | 1.0 | 8.0 | 0.00 | 0.15 | 0.00 | 82 | 1000.8 |
| 20260902163755 | 87 | 0 | 1.0 | 5.0 | 0.00 | 0.15 | 0.00 | 83 | 1000.9 |
| 20260902163255 | 87 | 0 | 2.0 | 8.0 | 0.00 | 0.15 | 0.00 | 84 | 1000.9 |
| 20260902163013 | 87 | 0 | 1.0 | 8.0 | 0.00 | 0.15 | 0.00 | 84 | 1000.9 |
| 20260902162524 | 87 | 0 | 1.0 | 4.0 | 0.00 | 0.15 | 0.00 | 85 | 1000.9 |
| 20260902161754 | 86 | 0 | 1.0 | 4.0 | 0.00 | 0.15 | 0.00 | 86 | 1000.9 |
| 20260902161253 | 86 | 0 | 1.0 | 10.0 | 0.00 | 0.15 | 0.00 | 86 | 1000.9 |
| 20260902161019 | 85 | 0 | 1.0 | 10.0 | 0.00 | 0.15 | 0.00 | 87 | 1000.9 |
| 20260902160253 | 85 | 0 | 1.0 | 4.0 | 0.00 | 0.15 | 0.00 | 87 | 1000.9 |
| 20260902155753 | 85 | 0 | 1.0 | 5.0 | 0.00 | 0.15 | 0.00 | 88 | 1000.9 |
| 20260902155253 | 85 | 0 | 1.0 | 5.0 | 0.00 | 0.15 | 0.00 | 88 | 1000.9 |
| 20260902154752 | 84 | 0 | 1.0 | 4.0 | 0.00 | 0.15 | 0.00 | 89 | 1000.8 |
| 20260902154252 | 84 | 0 | 1.0 | 4.0 | 0.00 | 0.15 | 0.00 | 90 | 1000.8 |
| 20260902154019 | 83 | 0 | 1.0 | 3.0 | 0.00 | 0.15 | 0.00 | 91 | 1000.8 |
| 20260902153250 | 83 | 0 | 1.0 | 3.0 | 0.00 | 0.15 | 0.00 | 90 | 1000.9 |
| 20260902153012 | 83 | 0 | 0.0 | 2.0 | 0.00 | 0.15 | 0.00 | 91 | 1000.9 |
| 20260902152251 | 83 | 0 | 0.0 | 5.0 | 0.00 | 0.15 | 0.00 | 91 | 1000.9 |
| 20260902151745 | 83 | 0 | 0.0 | 5.0 | 0.00 | 0.15 | 0.00 | 91 | 1000.9 |
| 20260902151245 | 82 | 209 | 0.0 | 3.0 | 0.00 | 0.15 | 0.00 | 91 | 1000.9 |
| 20260902150743 | 82 | 0 | 0.0 | 0.0 | 0.00 | 0.15 | 0.00 | 92 | 1001.0 |
| 20260902150237 | 82 | 0 | 0.0 | 0.0 | 0.00 | 0.15 | 0.00 | 92 | 1000.9 |
| 20260902145738 | 82 | 0 | 0.0 | 0.0 | 0.00 | 0.15 | 0.00 | 92 | 1001.0 |
| 20260902145234 | 82 | 0 | 0.0 | 0.0 | 0.00 | 0.15 | 0.00 | 93 | 1000.9 |
| 20260902144732 | 82 | 0 | 0.0 | 0.0 | 0.00 | 0.15 | 0.00 | 92 | 1000.9 |
| 20260902144230 | 81 | 0 | 0.0 | 0.0 | 0.00 | 0.15 | 0.00 | 92 | 1000.9 |
| 20260902143729 | 81 | 0 | 0.0 | 0.0 | 0.00 | 0.15 | 0.00 | 93 | 1000.9 |
| 20260902143712 | 81 | 0 | 0.0 | 0.0 | 0.00 | 0.15 | 0.00 | 93 | 1000.9 |
| 20260902142725 | 81 | 0 | 0.0 | 2.0 | 0.00 | 0.15 | 0.00 | 93 | 1000.9 |
| 20260902142447 | 81 | 0 | 0.0 | 2.0 | 0.00 | 0.15 | 0.00 | 93 | 1000.8 |
| 20260902141721 | 81 | 0 | 0.0 | 3.0 | 0.00 | 0.15 | 0.00 | 93 | 1000.9 |
| 20260902141219 | 81 | 0 | 0.0 | 3.0 | 0.00 | 0.15 | 0.00 | 93 | 1000.8 |
| 20260902140943 | 81 | 0 | 0.0 | 0.0 | 0.00 | 0.15 | 0.00 | 93 | 1000.7 |
| 20260902140216 | 81 | 0 | 0.0 | 1.0 | 0.00 | 0.15 | 0.00 | 93 | 1000.8 |
| 20260902135936 | 81 | 0 | 0.0 | 1.0 | 0.00 | 0.15 | 0.00 | 93 | 1000.7 |
| 20260902135215 | 81 | 0 | 0.0 | 1.0 | 0.00 | 0.15 | 0.00 | 93 | 1000.7 |
| 20260902134937 | 81 | 0 | 0.0 | 0.0 | 0.00 | 0.15 | 0.00 | 93 | 1000.7 |
| 20260902134211 | 80 | 0 | 0.0 | 0.0 | 0.00 | 0.15 | 0.00 | 93 | 1000.7 |
| 20260902133712 | 80 | 0 | 0.0 | 0.0 | 0.00 | 0.15 | 0.00 | 93 | 1000.7 |
| 20260902133209 | 80 | 0 | 0.0 | 1.0 | 0.00 | 0.15 | 0.00 | 93 | 1000.7 |
| 20260902132707 | 80 | 0 | 0.0 | 1.0 | 0.00 | 0.15 | 0.00 | 93 | 1000.7 |
| 20260902132207 | 80 | 0 | 0.0 | 0.0 | 0.00 | 0.15 | 0.00 | 93 | 1000.6 |
| 20260902131707 | 80 | 0 | 0.0 | 1.0 | 0.00 | 0.15 | 0.00 | 93 | 1000.5 |
| 20260902131207 | 80 | 0 | 0.0 | 1.0 | 0.00 | 0.15 | 0.00 | 93 | 1000.4 |
| 20260902130704 | 80 | 0 | 0.0 | 2.0 | 0.00 | 0.15 | 0.00 | 93 | 1000.4 |
| 20260902130203 | 80 | 0 | 0.0 | 2.0 | 0.00 | 0.15 | 0.00 | 93 | 1000.3 |
| 20260902125923 | 80 | 0 | 0.0 | 2.0 | 0.00 | 0.15 | 0.00 | 93 | 1000.2 |
| 20260902125159 | 80 | 0 | 0.0 | 2.0 | 0.00 | 0.15 | 0.00 | 93 | 1000.1 |
| 20260902124659 | 80 | 0 | 0.0 | 2.0 | 0.00 | 0.15 | 0.00 | 93 | 1000.0 |
| 20260902124418 | 80 | 0 | 0.0 | 2.0 | 0.00 | 0.15 | 0.00 | 93 | 999.9 |
| 20260902123700 | 80 | 0 | 0.0 | 1.0 | 0.00 | 0.15 | 0.00 | 93 | 999.9 |
| 20260902123158 | 80 | 0 | 0.0 | 3.0 | 0.00 | 0.15 | 0.00 | 93 | 999.7 |
| 20260902122920 | 80 | 0 | 1.0 | 3.0 | 0.00 | 0.15 | 0.00 | 93 | 999.5 |
| 20260902122157 | 80 | 0 | 0.0 | 2.0 | 0.00 | 0.15 | 0.00 | 93 | 999.4 |
| 20260902121918 | 80 | 0 | 0.0 | 3.0 | 0.00 | 0.15 | 0.00 | 93 | 999.3 |
| 20260902121156 | 80 | 0 | 1.0 | 3.0 | 0.00 | 0.15 | 0.00 | 93 | 999.3 |
| 20260902120656 | 80 | 0 | 1.0 | 3.0 | 0.00 | 0.15 | 0.00 | 93 | 999.1 |
| 20260902120155 | 80 | 0 | 1.0 | 3.0 | 0.00 | 0.15 | 0.00 | 93 | 999.0 |
| 20260902115655 | 80 | 0 | 0.0 | 3.0 | 0.00 | 0.15 | 0.00 | 93 | 999.0 |
| 20260902115413 | 80 | 0 | 0.0 | 2.0 | 0.00 | 0.15 | 0.00 | 93 | 999.0 |
| 20260902114655 | 80 | 0 | 0.0 | 2.0 | 0.00 | 0.15 | 0.00 | 93 | 999.0 |
| 20260902114155 | 80 | 0 | 0.0 | 2.0 | 0.00 | 0.15 | 0.00 | 93 | 999.0 |
| 20260902113655 | 80 | 0 | 0.0 | 2.0 | 0.00 | 0.15 | 0.00 | 93 | 999.0 |
| 20260902113155 | 80 | 0 | 1.0 | 2.0 | 0.00 | 0.15 | 0.00 | 93 | 998.9 |
| 20260902112655 | 80 | 0 | 1.0 | 2.0 | 0.00 | 0.15 | 0.00 | 93 | 998.8 |
| 20260902112416 | 80 | 0 | 0.0 | 3.0 | 0.00 | 0.15 | 0.00 | 93 | 998.8 |
| 20260902111656 | 79 | 0 | 1.0 | 3.0 | 0.00 | 0.15 | 0.00 | 93 | 998.8 |